Temp
22 22 21 21 23 23 25 26 24 27 29 30 30 29 26 24 25 23 20 21 21 21 21 21 21 21 21 22 21 21 21 21 22 21 21 21 21 21 21 21 21 21 21 21 20 21 21 20 20
23 21 21 22 24 24 25 25 25 26 27 29 29 28 26 22 22 19 19 21 21 21 21 21 21 21 21 22 21 21 21 21 21 21 21 21 21 21 21 21 21 21 21 21 20 21 21 20 20
23 23 22 23 24 24 25 26 27 29 30 30 28 27 24 22 21 20 21 21 21 21 22 21 21 21 21 22 21 21 21 21 21 21 21 21 21 20 21 21 21 21 21 20 21 21 22 21 21
23 22 23 24 25 25 25 26 27 29 30 29 27 24 23 23 22 21 21 21 21 21 21 21 21 21 21 21 21 21 21 21 21 21 21 21 21 21 21 21 20 21 20 21 21 21 22 22 22
23 23 24 24 25 24 25 26 25 27 28 27 27 22 21 22 22 22 21 21 21 21 21 21 21 22 22 21 21 21 21 21 21 21 21 21 21 21 21 21 21 21 21 21 21 22 22 22 22
23 21 24 24 25 27 28 27 26 28 27 25 24 24 21 22 22 22 21 21 22 21 21 21 22 22 22 21 21 21 21 21 21 21 21 21 22 21 21 21 21 21 21 21 21 21 22 22 22
23 24 24 24 25 25 29 27 27 28 27 26 26 22 20 22 22 22 22 22 22 21 21 21 21 21 21 21 21 21 21 21 21 21 21 21 22 22 21 21 21 21 21 22 22 22 22 23 23
23 24 25 24 25 26 30 29 29 29 27 27 25 22 21 23 22 23 22 22 22 21 21 21 22 22 21 21 21 21 21 21 21 21 22 22 22 22 22 22 22 22 22 23 22 23 23 23 23
27 25 24 26 27 28 28 30 29 28 27 28 27 24 24 23 23 23 22 21 21 21 21 21 22 22 21 21 21 21 22 22 22 22 23 23 22 23 23 23 23 23 23 23 23 23 23 23 23
26 24 25 29 28 29 30 29 28 27 26 26 25 25 24 24 23 23 22 21 21 21 21 22 22 22 22 22 22 23 22 22 23 23 23 23 22 23 23 23 23 23 23 23 24 23 23 23 23
27 25 28 30 31 29 30 31 30 27 25 25 23 24 25 24 24 24 23 21 21 22 22 22 22 22 23 23 23 23 23 24 24 23 23 23 23 23 23 23 23 23 24 24 24 24 24 25 23
26 29 29 30 32 31 31 31 29 29 26 26 25 25 25 24 24 24 23 22 22 22 22 22 22 23 24 24 24 24 24 24 24 24 24 24 24 24 23 24 23 23 24 24 25 25 25 25 24
28 29 31 32 31 31 32 31 29 28 27 26 26 25 25 25 25 25 24 23 22 22 23 23 23 23 24 24 25 25 24 24 24 24 24 24 24 24 24 24 24 24 24 24 24 25 25 25 24
30 30 31 32 31 29 31 30 28 27 27 26 26 25 25 25 25 25 25 24 23 23 23 24 24 24 24 24 25 25 25 25 25 24 24 25 25 24 24 24 24 24 23 24 24 24 25 25 24
30 29 31 32 32 30 31 28 26 26 27 26 26 26 26 25 25 25 26 25 24 24 24 24 24 25 24 24 25 25 25 25 25 25 25 25 25 25 24 25 25 24 24 25 24 24 24 25 24
29 29 28 31 30 30 29 27 26 26 26 26 26 26 26 25 26 26 26 26 25 25 25 25 24 25 25 25 25 25 25 26 26 25 25 25 25 25 24 24 25 24 24 24 24 24 25 25 26
27 26 28 30 32 30 28 26 27 27 26 26 26 26 26 26 26 26 26 26 26 26 26 25 25 25 25 25 26 26 26 25 26 27 26 26 25 25 25 25 25 24 25 25 25 25 25 25 26
25 27 28 30 32 31 28 27 27 27 27 26 26 26 26 26 26 26 26 26 27 26 27 26 25 25 26 26 26 27 26 26 26 26 26 26 25 25 25 25 25 25 24 25 24 25 25 26 26
28 28 28 30 32 29 27 27 27 27 25 27 26 26 26 26 27 27 26 26 27 26 25 25 25 26 26 26 26 26 26 26 26 25 26 26 26 25 25 25 25 25 25 25 25 25 25 25 26
28 28 29 31 32 33 29 28 28 26 26 27 27 26 26 26 26 27 27 27 27 26 25 25 25 26 26 26 26 26 26 26 26 26 26 26 26 25 25 25 25 25 25 25 25 25 25 25 26
28 28 29 29 32 31 29 26 26 26 27 27 29 27 28 27 27 27 27 27 27 26 25 24 25 26 26 26 26 25 26 26 25 26 26 26 25 25 25 25 25 24 24 25 25 25 25 25 25
27 30 31 31 30 29 30 24 25 26 26 26 26 28 28 28 29 28 28 27 27 27 25 25 25 26 25 25 25 25 24 24 25 26 26 26 26 25 25 25 25 25 25 25 25 25 25 25 25
29 30 30 30 29 29 31 27 25 27 26 27 28 27 28 27 30 29 29 28 28 28 26 25 25 25 25 25 26 25 24 24 25 25 26 26 26 25 25 26 25 25 25 25 25 25 25 25 25
31 30 29 29 27 26 28 30 27 26 27 29 29 28 28 28 30 30 30 29 28 27 26 26 24 25 25 25 25 25 24 25 25 25 26 26 26 26 26 26 25 25 25 25 25 25 25 24 25
30 27 25 24 26 26 27 27 30 29 29 30 29 30 29 29 28 31 30 29 28 27 26 26 25 24 24 25 24 25 25 25 25 25 26 26 26 26 26 26 26 25 25 25 25 25 25 25 25
27 28 25 25 24 27 27 27 30 30 32 31 30 31 30 30 29 30 30 30 29 27 26 26 25 25 24 25 24 25 25 25 25 25 26 26 27 27 27 26 26 25 25 25 25 25 25 25 25
28 27 29 25 25 25 26 29 31 31 30 32 31 31 31 31 30 30 31 30 30 27 26 25 25 25 24 24 24 25 25 25 25 25 26 26 27 27 27 27 26 26 25 25 25 25 25 25 25
30 28 28 23 26 25 26 28 31 30 31 30 32 32 31 31 31 31 32 30 30 28 27 26 25 25 25 24 24 24 24 25 25 25 25 26 27 26 27 27 27 26 26 26 25 25 25 25 25
29 29 28 27 23 27 25 29 29 29 30 30 31 33 32 31 31 32 32 31 30 29 28 26 25 25 24 24 24 24 24 24 24 25 25 26 26 26 27 27 27 26 26 26 25 25 25 25 24
29 27 28 28 25 23 25 30 32 31 30 31 31 34 33 32 32 33 32 32 30 30 28 27 25 25 24 24 24 23 23 23 23 23 24 25 26 26 27 26 26 27 26 26 26 25 25 24 24
Height
783 784 786 786 802 800 801 790 781 776 768 755 759 765 777 781 789 809 797 803 808 812 815 818 820 823 824 824 825 827 828 830 831 832 832 833 833 834 835 836 837 839 840 840 840 840 840 842 842
782 785 786 786 800 812 803 787 781 774 765 754 759 764 775 794 789 795 800 805 809 812 816 818 820 823 825 826 827 829 831 832 833 834 835 836 837 838 838 839 840 841 843 842 842 842 843 844 844
782 783 788 792 796 806 802 782 772 763 756 754 765 767 780 793 793 797 800 805 811 814 817 820 821 824 826 828 829 831 833 834 836 836 838 839 840 840 841 841 843 844 845 845 844 843 844 845 845
783 785 785 797 798 789 787 780 773 765 757 755 764 784 786 789 794 796 802 807 811 815 819 821 823 825 827 830 831 833 834 836 838 839 840 840 841 842 843 843 844 845 846 847 846 846 846 846 847
782 785 797 800 798 788 777 777 778 773 763 766 764 794 795 797 796 801 805 810 812 816 819 822 824 826 828 831 833 834 835 837 839 840 841 842 843 844 844 845 845 846 848 848 848 847 848 848 848
787 792 804 806 798 780 769 767 771 771 765 772 778 784 799 797 801 804 808 811 815 816 820 823 826 827 829 832 834 836 838 839 841 841 842 844 844 845 845 846 847 848 848 848 849 849 849 848 849
787 789 800 798 793 788 762 759 767 768 769 773 768 792 800 800 804 807 811 813 816 819 821 825 827 829 831 834 836 838 840 841 842 843 844 845 846 847 847 848 849 849 849 850 849 849 850 851 851
778 784 794 796 797 789 761 757 754 761 768 764 769 792 802 797 804 809 812 815 818 821 822 826 827 829 833 835 837 839 841 842 843 844 845 846 848 848 847 848 849 849 849 850 850 850 851 852 853
771 791 798 786 781 775 758 758 759 756 763 765 767 775 785 794 803 809 812 816 819 822 823 826 828 830 834 836 839 840 842 842 844 845 847 848 849 848 849 849 850 850 850 851 851 851 852 854 855
779 791 780 758 760 764 758 757 762 767 771 775 776 782 790 795 801 805 810 814 818 821 825 826 828 831 834 837 839 840 842 844 845 846 847 849 849 849 849 850 851 852 851 852 851 852 853 854 857
768 780 759 753 747 752 756 755 751 769 782 768 776 781 789 795 800 805 810 813 816 819 823 826 828 832 834 837 839 840 842 843 844 846 848 849 849 848 849 851 852 853 853 851 851 852 853 854 858
772 753 750 746 742 750 753 750 758 752 759 763 764 769 782 792 797 802 808 811 815 818 822 825 828 831 834 837 838 839 841 842 844 846 848 849 849 848 849 850 852 853 854 852 852 853 853 854 855
763 751 744 740 741 743 742 750 756 757 755 764 772 775 781 790 797 803 807 812 815 818 821 824 828 831 833 836 838 839 840 841 843 845 848 849 849 848 849 850 852 853 854 853 853 852 853 854 856
742 748 744 740 738 747 750 750 753 768 760 768 772 779 782 786 791 799 804 808 812 815 819 822 826 829 832 834 837 838 840 841 842 845 848 849 848 849 849 851 852 853 853 853 853 853 854 856 856
742 757 745 741 736 752 743 766 772 766 770 769 775 778 783 788 791 794 798 803 807 813 816 820 823 827 830 833 836 838 839 840 841 843 846 848 849 849 851 852 852 853 852 853 854 855 855 855 857
751 753 769 739 744 748 752 788 774 764 766 774 774 776 781 785 788 791 797 799 804 810 814 818 821 825 828 831 835 837 837 837 840 842 845 847 848 849 851 853 853 854 854 853 855 856 856 855 855
757 776 764 747 731 744 757 782 773 765 770 775 774 771 776 781 785 789 792 796 800 805 810 815 819 822 826 828 832 835 836 838 840 841 843 845 847 849 851 853 853 854 854 853 854 856 856 856 856
774 767 757 752 727 738 759 771 766 765 765 771 772 771 772 776 777 780 787 793 797 801 805 810 816 820 823 826 829 832 834 836 838 840 842 844 846 848 850 851 851 853 853 854 855 856 856 856 856
748 753 755 736 726 742 753 765 756 751 765 764 765 768 768 766 770 778 782 789 793 797 800 805 810 814 819 822 825 828 831 834 836 839 840 842 844 846 848 849 850 852 853 855 855 856 856 856 856
744 749 744 730 720 726 745 754 742 749 749 751 754 757 760 765 765 772 775 781 786 791 795 800 804 809 814 818 821 825 829 831 834 837 839 840 843 845 846 848 849 851 852 853 854 855 855 856 857
737 744 741 742 726 725 742 772 768 756 751 750 748 750 752 756 760 764 768 772 778 784 788 793 798 803 808 813 818 822 827 830 831 833 835 838 841 844 845 847 848 849 851 852 853 854 855 855 856
745 720 726 730 742 763 730 794 765 755 752 749 746 743 746 748 749 756 760 766 769 775 782 788 792 797 803 808 813 817 819 822 824 828 832 836 839 842 844 845 846 848 849 850 851 853 854 855 856
726 718 725 727 743 748 741 768 754 745 755 741 729 732 733 737 738 743 747 753 759 768 775 782 786 791 796 802 807 812 816 817 822 826 829 832 836 839 841 843 844 845 847 848 849 852 853 855 856
706 721 726 731 747 770 746 747 757 749 733 723 717 718 720 727 729 733 738 747 754 762 769 776 781 784 790 795 801 806 810 814 818 822 824 827 831 834 837 839 841 842 843 845 847 849 851 853 854
711 737 768 778 770 770 737 750 726 713 703 700 704 706 709 715 723 726 732 739 747 754 761 767 774 779 784 789 794 799 805 810 813 817 820 823 826 828 832 835 837 838 840 842 845 847 849 851 852
713 719 755 779 780 754 732 746 713 688 676 682 688 687 696 705 713 717 722 729 737 744 751 759 765 771 777 782 788 794 799 804 808 812 816 819 822 825 828 830 832 834 837 840 842 844 845 848 849
706 717 705 744 741 756 737 712 692 681 686 681 684 685 692 693 702 706 714 722 729 736 741 748 756 763 770 775 781 787 792 798 801 806 812 815 818 821 824 825 827 830 833 837 840 842 843 844 846
679 691 723 740 753 764 743 726 705 693 685 678 672 676 678 683 690 700 706 714 720 727 732 741 748 754 761 769 776 781 785 790 796 801 805 809 813 817 819 820 823 826 829 833 836 838 839 840 842
686 692 697 707 734 741 758 717 677 677 672 672 668 663 670 673 680 689 695 703 711 720 729 734 742 750 757 763 769 775 780 784 789 794 798 803 808 811 813 815 818 821 824 828 831 833 835 836 837
669 686 691 711 731 732 730 699 657 657 657 655 654 649 650 658 665 675 685 695 706 715 722 729 735 743 749 754 762 767 773 778 783 786 791 796 800 805 807 810 813 816 819 821 824 826 829 830 831
Wind_Speed
12 12 8 3 1 1 1 3 3 2 3 8 14 4 8 7 1 3 24 21 27 25 24 23 25 23 20 20 19 18 17 16 16 15 15 16 16 15 14 14 14 13 13 13 12 11 11 13 12
15 11 3 1 1 1 1 2 11 5 6 16 10 8 6 4 4 12 16 32 28 26 25 26 25 24 20 19 18 17 16 16 15 14 13 14 14 13 13 13 12 12 12 10 9 10 11 12 12
15 7 0 2 1 2 2 7 7 10 12 7 6 7 5 4 13 21 26 33 29 27 27 24 26 24 20 17 17 17 16 14 13 14 14 13 13 12 12 12 12 11 10 9 8 9 10 12 12
7 1 2 2 3 2 3 4 2 14 5 7 13 9 6 6 22 17 37 32 31 30 28 24 24 22 20 18 17 16 15 13 14 14 13 12 12 12 11 11 11 10 9 8 7 6 8 10 11
1 2 2 2 3 5 8 8 12 9 4 7 4 7 9 10 13 38 32 31 31 30 27 25 23 23 20 18 17 16 13 13 13 12 13 12 13 12 11 11 10 10 9 7 6 5 5 8 10
3 2 0 3 2 4 10 10 9 7 8 12 12 11 3 12 32 29 25 34 31 31 29 25 23 22 20 17 17 15 12 12 12 11 12 13 13 12 12 10 10 10 9 8 7 5 4 5 9
3 3 1 3 7 6 12 1 12 10 10 7 13 6 5 21 29 31 24 31 30 30 30 27 23 20 18 17 15 14 12 12 11 10 11 12 12 12 11 10 9 9 8 6 7 6 5 4 9
2 2 5 4 4 5 5 4 13 15 6 15 13 8 13 26 28 23 32 31 30 29 28 26 23 21 20 17 14 12 12 11 10 10 11 11 10 10 9 10 9 8 7 6 6 7 6 5 5
3 3 5 5 2 4 6 13 10 5 14 4 8 10 31 32 30 30 29 28 29 27 28 25 24 21 20 17 14 13 12 12 11 11 11 11 10 10 8 7 7 7 6 6 4 4 6 8 5
7 4 7 7 8 4 9 12 9 8 9 10 15 24 31 31 24 27 25 24 25 29 27 26 24 22 20 17 16 14 13 13 12 12 11 8 8 6 5 5 5 4 5 5 5 3 5 7 7
9 6 6 7 11 6 4 9 10 17 7 21 28 29 23 26 21 25 24 27 27 33 29 27 25 22 21 19 17 15 15 15 13 11 11 9 8 7 6 5 7 6 6 3 3 2 7 8 8
6 9 15 9 7 5 5 3 11 12 8 19 30 31 25 22 20 24 22 28 28 31 31 28 25 24 21 19 19 18 19 17 15 12 9 9 9 8 7 8 8 7 4 4 6 7 8 6 6
12 17 10 11 6 4 3 7 14 8 20 21 24 25 25 20 22 24 23 28 29 28 33 31 27 26 24 21 21 21 19 18 15 15 11 9 9 10 9 9 7 7 5 6 6 5 6 4 0
5 16 12 5 7 2 9 5 6 13 22 25 26 22 22 23 23 26 26 29 30 31 34 33 31 29 27 24 22 21 19 16 15 16 14 9 8 9 9 10 13 6 6 9 5 5 4 4 3
17 15 10 12 10 3 13 7 8 18 19 26 23 20 17 16 24 22 30 30 36 33 36 36 35 32 30 27 23 17 18 21 20 18 15 12 10 9 10 8 9 6 3 6 5 4 5 2 3
6 11 13 16 10 10 7 1 9 20 22 23 24 20 18 18 23 22 26 27 34 31 34 39 37 36 31 28 22 15 10 19 17 20 18 13 12 11 10 12 9 9 8 7 5 5 4 3 2
2 7 7 14 19 14 7 12 11 18 20 21 22 23 21 18 20 25 28 29 34 34 37 41 36 38 35 31 26 19 13 12 16 16 18 15 15 13 12 9 11 7 8 6 8 5 5 4 5
5 4 6 10 5 18 8 13 13 13 20 21 21 21 23 21 22 30 33 30 34 30 38 45 39 42 38 32 27 23 17 15 9 18 18 18 19 15 13 8 9 10 9 10 8 6 3 4 3
6 7 10 8 16 25 23 22 20 19 11 20 22 21 22 25 27 32 33 33 35 27 39 41 41 43 38 33 30 28 24 20 15 13 16 20 18 16 14 11 12 11 9 8 6 6 5 5 2
13 14 16 14 10 10 20 23 25 23 22 17 23 23 25 22 22 28 34 34 38 31 39 40 43 46 41 36 34 33 31 25 20 16 14 16 21 17 15 13 12 13 8 7 9 8 6 4 5
16 16 14 13 6 7 14 5 11 12 9 11 17 19 20 22 23 23 30 37 38 34 40 40 46 47 43 38 33 31 28 26 23 21 19 15 22 20 18 13 12 12 14 12 11 10 8 7 5
16 16 15 16 5 4 12 5 12 16 21 17 16 17 18 20 23 23 28 36 40 39 39 41 47 47 45 40 36 34 29 24 31 27 22 19 22 23 23 14 14 11 12 14 13 11 11 6 6
15 10 12 13 5 4 11 1 7 18 20 23 23 21 19 19 20 25 26 42 46 42 40 42 45 47 45 43 39 38 30 33 27 28 25 24 21 27 23 18 16 16 14 14 13 11 12 10 9
11 9 11 3 4 8 10 9 5 15 29 25 21 22 21 21 21 24 33 37 39 41 42 41 41 45 45 45 42 40 37 34 32 26 25 29 25 26 26 22 20 18 19 17 14 14 13 12 11
15 6 6 4 6 9 10 6 14 24 29 25 29 24 23 21 20 22 23 27 36 40 42 41 41 38 42 45 43 43 41 36 34 32 30 25 29 29 29 27 25 24 22 20 18 17 14 16 15
12 17 9 12 5 9 4 9 12 13 26 26 26 27 25 25 21 21 25 31 35 39 41 42 42 41 43 46 44 44 42 39 37 35 30 30 29 29 28 31 30 29 26 23 19 19 19 18 17
9 16 14 4 2 1 4 7 7 9 12 14 26 26 25 29 26 25 25 34 36 38 42 45 43 44 42 43 43 45 46 44 41 39 36 33 25 28 27 30 33 31 30 27 23 22 23 20 19
24 7 6 3 16 10 5 6 12 9 11 9 16 27 29 28 28 24 24 32 39 40 44 44 45 46 44 43 41 40 41 44 41 39 38 35 32 27 27 30 31 34 33 30 29 27 25 24 23
15 16 5 6 5 10 4 10 8 10 11 11 15 25 26 28 27 27 25 35 41 40 40 41 41 42 40 40 39 38 38 42 43 41 39 40 36 31 27 31 28 31 35 35 33 32 29 28 27
7 10 13 9 11 3 5 14 6 12 12 10 14 25 29 28 30 28 26 32 35 38 39 39 40 40 42 43 40 38 37 36 37 40 43 38 39 38 37 28 24 31 32 36 37 35 33 32 32
Wind_Direction
157 153 155 193 331 171 338 355 7 95 117 177 165 131 118 45 72 165 145 147 147 145 148 149 146 145 136 125 121 115 112 109 106 103 101 99 100 105 108 110 110 110 106 105 106 101 96 90 93
149 148 209 288 240 15 11 40 239 140 211 108 94 105 61 76 83 122 130 148 145 144 148 148 148 148 139 127 123 118 115 111 112 112 107 106 103 103 108 109 111 110 108 106 104 97 96 93 93
157 163 183 214 108 219 151 216 226 165 152 104 114 51 63 90 115 144 149 145 143 144 147 147 152 149 145 134 126 123 117 116 113 108 106 103 103 104 107 106 108 105 102 105 101 98 97 100 106
156 172 262 290 350 247 223 343 163 165 116 76 103 76 83 128 136 151 143 144 147 145 145 149 148 149 145 138 131 128 124 123 119 114 113 108 109 113 108 108 108 111 111 111 108 99 99 104 110
156 360 336 275 74 287 259 251 314 226 80 105 107 76 97 139 131 144 142 150 148 148 146 147 150 145 143 141 138 135 133 128 123 122 116 115 110 112 113 114 114 112 110 113 110 101 94 106 118
169 144 307 328 346 267 277 204 198 236 107 115 101 105 98 154 147 150 139 149 151 148 146 146 146 145 147 145 142 137 142 132 127 127 121 116 118 118 115 114 113 111 115 114 110 95 90 116 122
244 162 112 336 333 346 304 181 192 157 141 121 143 97 128 145 158 151 145 151 151 150 147 149 150 150 149 148 147 148 147 138 138 131 124 122 124 119 118 119 118 117 112 108 106 99 80 91 121
259 108 161 175 207 263 302 144 130 155 119 123 143 144 159 155 162 155 149 147 151 152 151 153 155 156 155 153 152 154 149 146 142 139 132 130 125 127 132 127 125 126 122 111 100 100 94 73 104
235 282 199 239 204 206 282 151 150 99 133 186 163 140 151 157 159 146 141 142 149 156 156 158 159 159 159 160 158 160 157 154 148 144 137 131 132 135 138 134 133 131 122 110 95 89 90 103 110
198 206 235 205 190 214 160 134 149 129 125 100 104 124 152 158 160 152 150 149 154 160 165 164 165 166 167 169 169 167 166 159 154 156 155 153 152 156 149 145 139 134 154 138 132 118 118 131 140
204 229 241 244 227 186 219 169 133 135 163 156 146 149 160 163 169 159 157 161 163 165 167 171 171 172 174 175 174 172 169 163 164 175 178 163 164 168 179 169 165 188 164 216 169 169 145 157 144
263 223 228 234 198 186 191 308 167 184 166 163 153 149 156 166 170 167 161 167 164 167 172 175 176 174 179 177 176 171 174 176 173 159 152 168 175 188 193 193 193 211 235 138 127 143 169 175 209
234 247 232 247 292 239 20 28 183 136 138 145 147 154 158 166 171 175 166 170 169 171 177 180 181 181 181 183 181 181 186 190 184 185 167 168 172 179 195 196 202 217 187 124 108 148 143 179 251
225 228 246 156 322 42 84 83 80 141 139 145 155 163 164 169 169 174 175 172 176 178 183 181 186 186 185 192 194 190 199 203 202 203 185 182 186 167 168 187 201 198 188 190 158 165 136 121 98
247 265 245 207 172 121 111 77 137 151 154 153 160 165 168 178 174 177 181 180 183 185 188 186 189 190 194 198 207 207 231 223 221 212 202 183 157 160 175 203 183 188 146 171 189 187 195 246 121
225 234 250 220 177 127 86 188 166 164 162 168 169 169 176 181 191 188 184 182 183 184 191 193 195 196 196 198 193 201 173 207 196 200 189 191 175 168 165 182 196 181 181 208 197 216 194 214 293
229 245 240 251 201 146 130 185 196 182 170 175 181 175 180 183 189 194 196 193 186 189 192 196 193 193 186 189 197 203 184 164 189 184 191 196 180 178 181 185 188 185 188 202 195 191 191 259 269
196 229 222 234 217 155 143 184 173 182 180 189 186 182 184 190 198 188 197 203 199 191 196 194 191 195 197 197 201 203 198 193 189 200 203 201 193 195 186 184 194 200 190 198 193 191 154 179 199
255 226 232 257 157 160 179 186 197 189 190 194 189 190 193 190 197 198 194 201 203 192 188 187 192 198 198 199 202 204 207 205 206 209 207 212 200 196 197 193 195 191 193 203 197 187 192 195 174
231 254 252 272 274 196 181 195 202 196 201 196 190 189 198 195 191 198 199 201 202 194 189 189 193 197 200 203 209 210 209 212 215 223 215 211 205 198 198 201 200 207 213 223 214 197 195 169 163
230 233 247 241 300 31 131 152 200 218 231 197 204 203 199 198 196 197 198 200 199 197 190 190 194 198 200 201 201 209 212 218 222 226 221 207 206 200 203 210 220 216 215 212 215 208 216 213 193
230 232 251 257 262 213 171 209 198 195 216 217 209 208 205 201 198 201 196 201 200 199 193 192 195 198 200 200 198 201 203 207 217 220 220 214 207 206 206 213 216 211 213 222 224 219 217 205 189
234 233 246 251 229 214 229 122 239 193 213 218 218 207 206 206 206 197 198 199 202 196 191 192 194 195 197 201 203 203 203 212 216 220 221 224 213 213 213 218 217 216 213 218 226 219 212 219 208
226 230 255 261 194 241 229 206 265 181 212 213 218 210 202 201 210 198 190 192 193 193 192 191 190 194 196 201 204 206 208 214 215 217 221 222 222 218 219 220 224 223 218 218 226 217 217 225 218
214 149 240 290 239 232 219 217 225 205 209 208 206 213 205 204 203 202 191 184 185 187 189 190 191 192 196 200 202 209 214 217 216 219 221 219 222 223 225 223 222 224 223 223 221 215 226 222 226
211 204 198 214 197 230 194 210 239 204 217 207 206 205 199 204 203 210 198 192 187 186 187 190 192 194 195 200 202 208 214 217 220 221 221 223 225 227 228 228 224 225 224 226 222 216 218 227 234
216 210 204 176 196 156 221 238 265 231 192 210 210 208 200 203 203 209 198 195 192 188 189 190 193 197 198 200 202 207 214 218 221 225 227 228 226 229 232 229 225 227 227 225 224 219 220 229 230
213 166 194 213 228 244 275 221 226 217 241 211 199 199 198 203 205 207 198 194 195 194 193 193 195 197 199 202 204 206 208 215 221 225 227 227 230 229 230 231 230 231 231 228 224 223 224 229 231
214 211 226 168 157 219 223 251 215 230 217 209 193 191 202 200 202 203 200 195 196 196 193 195 195 198 199 201 204 207 211 215 219 221 226 227 227 224 226 230 232 236 234 230 227 227 230 228 231
256 191 199 206 225 212 190 253 240 213 231 215 218 196 198 197 198 196 197 193 192 195 194 194 195 196 199 200 202 206 210 212 215 218 224 226 229 230 230 230 234 236 237 232 228 229 231 229 229